Regional Weather Roundup
Issued by NWS Mt. Holly, NJ

Current Version | Previous Version | Text Only | Print | Product List | Glossary On
Versions: 1 2 3 4 5 6 7 8 9 10 11 12 13 14 15 16 17 18 19 20 21 22 23 24 25 26 27 28
000
ASUS41 KPHI 250710
RWRPHI

REGIONAL WEATHER ROUNDUP
NATIONAL WEATHER SERVICE MOUNT HOLLY NJ
300 AM EDT SAT OCT 25 2014

NOTE:  "FAIR" INDICATES FEW OR NO CLOUDS BELOW 12,000 FEET WITH NO
SIGNIFICANT WEATHER AND/OR OBSTRUCTIONS TO VISIBILITY.

 * = STATION DOES NOT REPORT PRECIPITATION (E.G. RAIN, SNOW, ETC.)
        OR FOG.

NJZ015>026-250800-
SOUTHERN NEW JERSEY

CITY           SKY/WX    TMP DP  RH WIND       PRES   REMARKS
POMONA         CLEAR     45  39  79 NW7       29.90R
RIO GRANDE*    CLEAR     55  43  62 NW8       29.91F
MILLVILLE      FAIR      47  40  76 W7        29.91R
WRIGHTSTOWN    CLEAR     50  39  66 NW3       29.87S HAZE
MOUNT HOLLY    CLEAR     46  38  73 S3        29.89S
TRENTON        CLEAR     52  32  46 CALM      29.89R

$$
NJZ001>014-250800-
NORTHERN NEW JERSEY

CITY           SKY/WX    TMP DP  RH WIND       PRES   REMARKS
SUSSEX         PTCLDY    47  37  68 N3        29.88S
ANDOVER*         N/A     47  34  60 CALM      29.89S
MORRISTOWN     PTCLDY    52  39  62 CALM      29.88S
NEWARK         MOCLDY    53  39  59 NW7       29.87R
TETERBORO      PTCLDY    52  36  54 NW6       29.86R
CALDWELL       PTCLDY    47  37  68 CALM      29.88S
SOMERVILLE     CLEAR     42  38  85 CALM      29.87S
ALLAIRE*       PTCLDY    50  36  57 NW5       29.87S
TOMS RIVER*    PTCLDY    43  39  87 CALM      29.88S

$$
PAZ043-044-047-054-055-060>062-066>071-250800-
EASTERN PENNSYLVANIA

CITY           SKY/WX    TMP DP  RH WIND       PRES   REMARKS
PHILADELPHIA   PTCLDY    52  37  56 SW3       29.91R
NORTH PHILA    CLEAR     50  34  54 N7        29.91S
BLUE BELL      CLEAR     46  37  71 CALM      29.90R
DOYLESTOWN     CLEAR     47  34  60 N3        29.89S
QUAKERTOWN*    CLEAR     45  32  61 NW3       29.91S
POTTSTOWN      CLEAR     48  35  60 CALM      29.92S
LANCASTER      CLEAR     46  38  73 W5        29.93S
COATESVILLE    CLEAR     48  39  71 NW9       29.91F
READING        CLEAR     45  36  70 NW3       29.91S
ALLENTOWN      CLEAR     46  31  55 CALM      29.91R
MOUNT POCONO   CLEAR     44  29  55 NW8       29.88S
HAZLETON       CLEAR     46  28  49 W7        29.94R
WILKES BARRE   CLEAR     42  31  64 CALM      29.91S

$$
DEZALL-MDZ008-012-015-019-020-250800-
DELAWARE AND EASTERN MARYLAND

CITY           SKY/WX    TMP DP  RH WIND       PRES   REMARKS
WILMINGTON     CLEAR     50  39  66 NW6       29.92S
DOVER          PTCLDY    49  40  70 W6        29.90R
GEORGETOWN     CLEAR     51  40  65 VRB3      29.93R
EASTON         CLEAR     51  43  75 CALM      29.98R
PATUXENT       CLEAR     50  38  63 W8        29.95R
OCEAN CITY     CLEAR     52  40  63 NW7       29.91S
WALLOPS ISLAND CLEAR     53  42  66 NW8       29.93S
CAMBRIDGE      CLEAR     54  41  62 NW7       29.94R
SALISBURY      CLEAR     47  41  80 W3        29.93R

$$
PAZ001-021-NYZ056-072-MDZ011-DCZ001-250800-
OTHER NEARBY LOCATIONS

CITY           SKY/WX    TMP DP  RH WIND       PRES   REMARKS
HARRISBURG     CLEAR     48  39  71 N3        29.93S
STATE COLLEGE  PTCLDY    49  38  66 SW8       29.96S
WILLIAMSPORT   CLEAR     43  33  68 N6        29.94R
BINGHAMTON     CLEAR     39  32  76 W7        29.89S WCI  34
NEW YORK CITY  CLEAR     54  36  50 NW8       29.89R
BALTIMORE      CLEAR     47  38  71 W5        29.94S
WASHINGTON DC  CLEAR     55  41  59 NE3       29.97S

$$



USA.gov is the U.S. government's official web portal to all federal, state and local government web resources and services.